Regional Weather Roundup
Issued by NWS Cleveland, OH

Home | Current Version | Previous Version | Graphics & Text | Print | Product List | Glossary On
Versions: 1 2 3 4 5 6 7 8 9 10 11 12 13 14 15 16 17 18 19 20 21 22 23 24 25 26 27 28 29 30 31 32 33 34 35 36 37 38 39 40 41 42 43 44 45 46 47 48 49 50
000
ASUS41 KCLE 230410
RWRCLE
OHIO REGIONAL WEATHER ROUNDUP
NATIONAL WEATHER SERVICE WILMINGTON, OH
1100 PM EST WED FEB 22 2017

NOTE: "FAIR" INDICATES FEW OR NO CLOUDS BELOW 12,000 FEET WITH NO
SIGNIFICANT WEATHER AND/OR OBSTRUCTIONS TO VISIBILITY.

OHZ001>008-015>018-024>027-034-035-043-044-230500-
   NORTHWEST OHIO

CITY           SKY/WX    TMP DP  RH WIND       PRES   REMARKS
DEFIANCE       FAIR      55  51  86 S8        29.72F
FINDLAY        FAIR      57  52  83 S12       29.73F
TOLEDO EXPRESS FAIR      56  55  97 S9        29.71F FOG
TOLEDO EXEC    FAIR      57  55  93 S12       29.72F FOG
LIMA           MOCLDY    57  56  96 S10       29.75F
$$

OHZ009>014-019>023-028>033-038-089-230500-
   NORTHEAST OHIO

CITY           SKY/WX    TMP DP  RH WIND       PRES   REMARKS
CLE-HOPKINS    CLOUDY    59  52  77 S13       29.80F
CLE-LAKEFRONT  CLOUDY    59  52  77 S17G26    29.76F
CUY CO. ARPT   MOCLDY    59  54  82 S17       29.80F
LORAIN-ELYRIA  MOCLDY    56  51  84 S12       29.78F
ASHTABULA      CLOUDY    57  52  83 S9        29.81F
AKRON-CANTON   CLOUDY    56  51  84 S12       29.83F
WOOSTER        CLOUDY    55  52  89 S10       29.82F
MANSFIELD      CLOUDY    55  54  96 S12       29.79F
YOUNGSTOWN     CLOUDY    56  51  84 SW7       29.84S
$$

OHZ042-051>053-060>062-070>072-077>081-230500-
  SOUTHWEST OHIO

CITY           SKY/WX    TMP DP  RH WIND       PRES   REMARKS
CINC-COVINGTON MOCLDY    61  56  83 S9        29.80F
CINC-LUNKEN    CLOUDY    57  57 100 SW6       29.81F
HAMILTON       FAIR      54  54 100 SE3       29.80F
DAYTON         FAIR      55  54  96 S7        29.79F
WRIGHT-PAT AFB PTCLDY    56  56 100 S7        29.79F
DAYTON GENERAL FAIR      56  54  93 S8        29.79F
WILMINGTON     CLOUDY    58  56  93 S8        29.81F
$$

OHZ036-037-039>041-045>050-054>059-063>069-073>076-082>088-230500-
  CENTRAL AND SOUTHEAST OHIO

CITY           SKY/WX    TMP DP  RH WIND       PRES   REMARKS
COLUMBUS       CLOUDY    59  54  83 S8        29.82S
OSU AIRPORT    CLOUDY    57  55  93 S10       29.81F
BOLTON FIELD   MOCLDY    55  55  97 S10       29.82F
RICKENBACK AFB CLOUDY    56  55  95 S8        29.82S
NEWARK         CLOUDY    56  53  90 S5        29.82F
MARION         MOCLDY    54  52  93 S12       29.79F FOG
LANCASTER      CLOUDY    59  54  83 SE8       29.83F
ZANESVILLE     CLOUDY    55  53  93 SE6       29.85F FOG
NEW PHILLY     CLOUDY    56  52  86 S5        29.86S
$$




USA.gov is the U.S. government's official web portal to all federal, state and local government web resources and services.